Time,TemperatureF,DewpointF,PressureIn,WindDirection,WindDirectionDegrees,WindSpeedMPH,WindSpeedGustMPH,Humidity,HourlyPrecipIn,Conditions,Clouds,dailyrainin,SoftwareType,DateUTC
2013-06-17 00:00:00,58.7,52.9,29.81,East,96,0.0,14.0,81,0.00,,,0.00,Wunderground v.1.13,2013-06-17 06:00:00,
2013-06-17 00:05:00,58.3,52.8,29.81,East,96,0.0,14.0,82,0.00,,,0.00,Wunderground v.1.13,2013-06-17 06:05:00,
2013-06-17 00:10:00,58.1,53.0,29.81,East,96,0.0,14.0,83,0.00,,,0.00,Wunderground v.1.13,2013-06-17 06:10:00,
2013-06-17 00:20:00,57.8,53.0,29.81,East,96,0.0,14.0,84,0.00,,,0.00,Wunderground v.1.13,2013-06-17 06:20:00,
2013-06-17 00:25:00,57.6,53.1,29.81,East,96,0.0,14.0,85,0.00,,,0.00,Wunderground v.1.13,2013-06-17 06:25:00,
2013-06-17 00:29:00,57.5,53.0,29.81,East,96,0.0,14.0,85,0.00,,,0.00,Wunderground v.1.13,2013-06-17 06:29:00,
2013-06-17 00:34:00,57.3,52.8,29.81,East,96,0.0,14.0,85,0.00,,,0.00,Wunderground v.1.13,2013-06-17 06:34:00,
2013-06-17 00:40:00,57.0,52.5,29.81,East,96,0.0,14.0,85,0.00,,,0.00,Wunderground v.1.13,2013-06-17 06:40:00,
2013-06-17 00:45:00,56.7,52.2,29.81,East,96,0.0,14.0,85,0.00,,,0.00,Wunderground v.1.13,2013-06-17 06:45:00,
2013-06-17 00:50:00,56.5,52.0,29.81,East,96,0.0,14.0,85,0.00,,,0.00,Wunderground v.1.13,2013-06-17 06:50:00,
2013-06-17 00:55:00,56.2,52.1,29.81,East,96,0.0,14.0,86,0.00,,,0.00,Wunderground v.1.13,2013-06-17 06:55:00,
2013-06-17 00:59:00,55.9,51.8,29.81,East,96,0.0,14.0,86,0.00,,,0.00,Wunderground v.1.13,2013-06-17 06:59:00,
2013-06-17 01:04:00,55.7,51.6,29.80,East,96,0.0,14.0,86,0.00,,,0.00,Wunderground v.1.13,2013-06-17 07:04:00,
2013-06-17 01:09:00,55.4,51.3,29.80,East,96,0.0,14.0,86,0.00,,,0.00,Wunderground v.1.13,2013-06-17 07:09:00,
2013-06-17 01:14:00,55.3,51.5,29.80,East,96,0.0,14.0,87,0.00,,,0.00,Wunderground v.1.13,2013-06-17 07:14:00,
2013-06-17 01:19:00,55.0,51.2,29.80,East,96,0.0,14.0,87,0.00,,,0.00,Wunderground v.1.13,2013-06-17 07:19:00,
2013-06-17 01:25:00,55.0,51.5,29.80,East,96,0.0,14.0,88,0.00,,,0.00,Wunderground v.1.13,2013-06-17 07:25:00,
2013-06-17 01:30:00,54.8,51.3,29.80,East,96,0.0,14.0,88,0.00,,,0.00,Wunderground v.1.13,2013-06-17 07:30:00,
2013-06-17 01:34:00,54.8,51.3,29.80,East,96,0.0,14.0,88,0.00,,,0.00,Wunderground v.1.13,2013-06-17 07:34:00,
2013-06-17 01:39:00,54.8,51.3,29.80,East,96,0.0,14.0,88,0.00,,,0.00,Wunderground v.1.13,2013-06-17 07:39:00,
2013-06-17 01:44:00,54.5,51.3,29.80,East,96,0.0,14.0,89,0.00,,,0.00,Wunderground v.1.13,2013-06-17 07:44:00,
2013-06-17 01:50:00,54.5,51.3,29.80,East,96,0.0,14.0,89,0.00,,,0.00,Wunderground v.1.13,2013-06-17 07:50:00,
2013-06-17 01:55:00,54.5,51.3,29.80,East,96,0.0,14.0,89,0.00,,,0.00,Wunderground v.1.13,2013-06-17 07:55:00,
2013-06-17 02:04:00,54.4,51.2,29.79,East,96,0.0,14.0,89,0.00,,,0.00,Wunderground v.1.13,2013-06-17 08:04:00,
2013-06-17 02:09:00,54.4,51.5,29.79,East,96,0.0,14.0,90,0.00,,,0.00,Wunderground v.1.13,2013-06-17 08:09:00,
2013-06-17 02:15:00,54.2,51.3,29.79,East,96,0.0,14.0,90,0.00,,,0.00,Wunderground v.1.13,2013-06-17 08:15:00,
2013-06-17 02:20:00,54.2,51.3,29.79,East,96,0.0,14.0,90,0.00,,,0.00,Wunderground v.1.13,2013-06-17 08:20:00,
2013-06-17 02:25:00,53.9,50.7,29.79,East,96,0.0,14.0,89,0.00,,,0.00,Wunderground v.1.13,2013-06-17 08:25:00,
2013-06-17 02:29:00,53.6,50.7,29.79,East,96,0.0,14.0,90,0.00,,,0.00,Wunderground v.1.13,2013-06-17 08:29:00,
2013-06-17 02:34:00,53.5,50.6,29.78,East,96,0.0,14.0,90,0.00,,,0.00,Wunderground v.1.13,2013-06-17 08:34:00,
2013-06-17 02:40:00,53.3,50.4,29.78,East,96,0.0,14.0,90,0.00,,,0.00,Wunderground v.1.13,2013-06-17 08:40:00,
2013-06-17 02:45:00,53.3,50.4,29.78,East,96,0.0,14.0,90,0.00,,,0.00,Wunderground v.1.13,2013-06-17 08:45:00,
2013-06-17 02:50:00,53.5,50.9,29.78,East,96,0.0,14.0,91,0.00,,,0.00,Wunderground v.1.13,2013-06-17 08:50:00,
2013-06-17 02:55:00,53.6,51.0,29.78,East,96,0.0,14.0,91,0.00,,,0.00,Wunderground v.1.13,2013-06-17 08:55:00,
2013-06-17 02:59:00,53.8,51.2,29.78,East,96,0.0,14.0,91,0.00,,,0.00,Wunderground v.1.13,2013-06-17 08:59:00,
2013-06-17 03:09:00,53.5,50.9,29.79,East,88,0.0,14.0,91,0.00,,,0.00,Wunderground v.1.13,2013-06-17 09:09:00,
2013-06-17 03:14:00,53.6,51.0,29.79,East,88,0.0,14.0,91,0.00,,,0.00,Wunderground v.1.13,2013-06-17 09:14:00,
2013-06-17 03:20:00,53.6,51.0,29.79,East,88,0.0,14.0,91,0.00,,,0.00,Wunderground v.1.13,2013-06-17 09:20:00,
2013-06-17 03:24:00,53.8,51.5,29.79,East,88,0.0,14.0,92,0.00,,,0.00,Wunderground v.1.13,2013-06-17 09:24:00,
2013-06-17 03:34:00,53.8,51.2,29.79,East,88,0.0,14.0,91,0.00,,,0.00,Wunderground v.1.13,2013-06-17 09:34:00,
2013-06-17 03:40:00,53.6,51.0,29.79,East,88,0.0,14.0,91,0.00,,,0.00,Wunderground v.1.13,2013-06-17 09:40:00,
2013-06-17 03:45:00,53.5,51.2,29.79,East,88,0.0,14.0,92,0.00,,,0.00,Wunderground v.1.13,2013-06-17 09:45:00,
2013-06-17 03:50:00,53.5,51.2,29.79,East,88,0.0,14.0,92,0.00,,,0.00,Wunderground v.1.13,2013-06-17 09:50:00,
2013-06-17 03:55:00,53.2,50.6,29.79,East,88,0.0,14.0,91,0.00,,,0.00,Wunderground v.1.13,2013-06-17 09:55:00,
2013-06-17 04:05:00,52.6,50.3,29.79,East,88,0.0,14.0,92,0.00,,,0.00,Wunderground v.1.13,2013-06-17 10:05:00,
2013-06-17 04:10:00,52.8,50.5,29.79,East,88,0.0,14.0,92,0.00,,,0.00,Wunderground v.1.13,2013-06-17 10:10:00,
2013-06-17 04:15:00,52.9,50.6,29.79,North,9,0.0,14.0,92,0.00,,,0.00,Wunderground v.1.13,2013-06-17 10:15:00,
2013-06-17 04:25:00,53.3,51.0,29.81,North,9,0.0,14.0,92,0.00,,,0.00,Wunderground v.1.13,2013-06-17 10:25:00,
2013-06-17 04:30:00,53.3,51.0,29.81,North,9,0.0,14.0,92,0.00,,,0.00,Wunderground v.1.13,2013-06-17 10:30:00,
2013-06-17 04:35:00,53.5,51.2,29.81,North,5,0.0,14.0,92,0.00,,,0.00,Wunderground v.1.13,2013-06-17 10:35:00,
2013-06-17 04:40:00,53.6,51.3,29.81,North,5,0.0,14.0,92,0.00,,,0.00,Wunderground v.1.13,2013-06-17 10:40:00,
2013-06-17 04:45:00,53.8,51.5,29.81,North,5,0.0,14.0,92,0.00,,,0.00,Wunderground v.1.13,2013-06-17 10:45:00,
2013-06-17 04:50:00,53.9,51.9,29.81,North,5,0.0,14.0,93,0.00,,,0.00,Wunderground v.1.13,2013-06-17 10:50:00,
2013-06-17 04:55:00,53.9,51.6,29.81,North,5,0.0,14.0,92,0.00,,,0.00,Wunderground v.1.13,2013-06-17 10:55:00,
2013-06-17 05:00:00,53.8,51.8,29.81,North,5,0.0,14.0,93,0.00,,,0.00,Wunderground v.1.13,2013-06-17 11:00:00,
2013-06-17 05:09:00,53.5,51.5,29.82,North,5,0.0,14.0,93,0.00,,,0.00,Wunderground v.1.13,2013-06-17 11:09:00,
2013-06-17 05:15:00,53.6,51.6,29.82,North,5,0.0,14.0,93,0.00,,,0.00,Wunderground v.1.13,2013-06-17 11:15:00,
2013-06-17 05:20:00,53.8,51.8,29.82,North,5,0.0,14.0,93,0.00,,,0.00,Wunderground v.1.13,2013-06-17 11:20:00,
2013-06-17 05:30:00,54.4,52.7,29.82,North,5,0.0,14.0,94,0.00,,,0.00,Wunderground v.1.13,2013-06-17 11:30:00,
2013-06-17 05:35:00,54.7,53.0,29.82,NNW,336,0.0,14.0,94,0.00,,,0.00,Wunderground v.1.13,2013-06-17 11:35:00,
2013-06-17 05:39:00,55.1,53.4,29.82,NNW,335,0.0,14.0,94,0.00,,,0.00,Wunderground v.1.13,2013-06-17 11:39:00,
2013-06-17 05:44:00,56.2,54.8,29.82,NNW,343,0.0,14.0,95,0.00,,,0.00,Wunderground v.1.13,2013-06-17 11:44:00,
2013-06-17 05:50:00,57.0,55.6,29.84,NNW,344,0.0,14.0,95,0.00,,,0.00,Wunderground v.1.13,2013-06-17 11:50:00,
2013-06-17 05:55:00,57.3,55.6,29.84,NNW,344,0.0,14.0,94,0.00,,,0.00,Wunderground v.1.13,2013-06-17 11:55:00,
2013-06-17 06:00:00,57.3,55.6,29.84,NNW,342,0.0,14.0,94,0.00,,,0.00,Wunderground v.1.13,2013-06-17 12:00:00,
2013-06-17 06:10:00,57.6,55.9,29.84,NNW,334,0.0,14.0,94,0.00,,,0.00,Wunderground v.1.13,2013-06-17 12:10:00,
2013-06-17 06:20:00,58.0,56.0,29.86,NW,324,1.0,14.0,93,0.00,,,0.00,Wunderground v.1.13,2013-06-17 12:20:00,
2013-06-17 06:25:00,58.0,55.7,29.86,North,351,3.0,14.0,92,0.00,,,0.00,Wunderground v.1.13,2013-06-17 12:25:00,
2013-06-17 06:30:00,58.1,55.8,29.86,North,351,3.0,14.0,92,0.00,,,0.00,Wunderground v.1.13,2013-06-17 12:30:00,
2013-06-17 06:35:00,58.3,56.0,29.86,North,351,2.0,2.0,92,0.00,,,0.00,Wunderground v.1.13,2013-06-17 12:35:00,
2013-06-17 06:39:00,58.4,56.1,29.86,NNE,28,1.0,1.0,92,0.00,,,0.00,Wunderground v.1.13,2013-06-17 12:39:00,
2013-06-17 06:49:00,58.9,56.0,29.86,NW,321,0.0,14.0,90,0.00,,,0.00,Wunderground v.1.13,2013-06-17 12:49:00,
2013-06-17 06:55:00,59.0,56.1,29.86,NNW,332,0.0,14.0,90,0.00,,,0.00,Wunderground v.1.13,2013-06-17 12:55:00,
2013-06-17 07:00:00,59.3,56.4,29.86,NNW,327,0.0,14.0,90,0.00,,,0.00,Wunderground v.1.13,2013-06-17 13:00:00,
2013-06-17 07:05:00,59.5,56.3,29.87,NNW,327,0.0,14.0,89,0.00,,,0.00,Wunderground v.1.13,2013-06-17 13:05:00,
2013-06-17 07:09:00,59.8,56.6,29.87,NNW,327,0.0,14.0,89,0.00,,,0.00,Wunderground v.1.13,2013-06-17 13:09:00,
2013-06-17 07:14:00,59.9,56.6,29.87,NNW,327,0.0,14.0,89,0.00,,,0.00,Wunderground v.1.13,2013-06-17 13:14:00,
2013-06-17 07:19:00,60.2,56.6,29.88,NNW,327,0.0,14.0,88,0.00,,,0.00,Wunderground v.1.13,2013-06-17 13:19:00,
2013-06-17 07:24:00,60.5,56.6,29.88,NNW,327,0.0,14.0,87,0.00,,,0.00,Wunderground v.1.13,2013-06-17 13:24:00,
2013-06-17 07:30:00,60.9,57.0,29.88,NNW,327,0.0,14.0,87,0.00,,,0.00,Wunderground v.1.13,2013-06-17 13:30:00,
2013-06-17 07:35:00,61.3,57.1,29.88,NNW,327,0.0,14.0,86,0.00,,,0.00,Wunderground v.1.13,2013-06-17 13:35:00,
2013-06-17 07:45:00,62.1,56.9,29.88,North,351,0.0,14.0,83,0.00,,,0.00,Wunderground v.1.13,2013-06-17 13:45:00,
2013-06-17 07:50:00,62.1,56.5,29.88,NNE,19,1.0,1.0,82,0.00,,,0.00,Wunderground v.1.13,2013-06-17 13:50:00,
2013-06-17 07:55:00,62.4,56.8,29.88,North,11,0.0,14.0,82,0.00,,,0.00,Wunderground v.1.13,2013-06-17 13:55:00,
2013-06-17 07:59:00,63.5,57.2,29.88,NNW,336,0.0,14.0,80,0.00,,,0.00,Wunderground v.1.13,2013-06-17 13:59:00,
2013-06-17 08:05:00,64.2,56.5,29.89,NNW,341,2.0,14.0,76,0.00,,,0.00,Wunderground v.1.13,2013-06-17 14:05:00,
2013-06-17 08:10:00,64.3,56.2,29.89,North,351,3.0,14.0,75,0.00,,,0.00,Wunderground v.1.13,2013-06-17 14:10:00,
2013-06-17 08:15:00,65.0,56.5,29.89,NNE,12,4.0,14.0,74,0.00,,,0.00,Wunderground v.1.13,2013-06-17 14:15:00,
2013-06-17 08:24:00,66.6,56.5,29.89,North,11,4.0,4.0,70,0.00,,,0.00,Wunderground v.1.13,2013-06-17 14:24:00,
2013-06-17 08:29:00,67.1,55.8,29.89,NNW,340,5.0,5.0,67,0.00,,,0.00,Wunderground v.1.13,2013-06-17 14:29:00,
2013-06-17 08:34:00,67.4,56.5,29.89,NNE,13,4.0,14.0,68,0.00,,,0.00,Wunderground v.1.13,2013-06-17 14:34:00,
2013-06-17 08:40:00,68.3,56.9,29.89,NE,34,1.0,14.0,67,0.00,,,0.00,Wunderground v.1.13,2013-06-17 14:40:00,
2013-06-17 08:45:00,68.6,55.9,29.89,North,351,2.0,2.0,64,0.00,,,0.00,Wunderground v.1.13,2013-06-17 14:45:00,
2013-06-17 08:50:00,69.1,55.5,29.89,NNE,20,3.0,14.0,62,0.00,,,0.00,Wunderground v.1.13,2013-06-17 14:50:00,
2013-06-17 08:59:00,70.8,56.2,29.89,NNE,28,1.0,14.0,60,0.00,,,0.00,Wunderground v.1.13,2013-06-17 14:59:00,
2013-06-17 09:05:00,71.5,55.9,29.88,North,351,1.0,1.0,58,0.00,,,0.00,Wunderground v.1.13,2013-06-17 15:05:00,
2013-06-17 09:10:00,72.0,55.9,29.88,NE,52,1.0,1.0,57,0.00,,,0.00,Wunderground v.1.13,2013-06-17 15:10:00,
2013-06-17 09:15:00,72.7,57.1,29.88,NNE,29,1.0,1.0,58,0.00,,,0.00,Wunderground v.1.13,2013-06-17 15:15:00,
2013-06-17 09:20:00,73.2,54.5,29.87,ENE,62,2.0,14.0,52,0.00,,,0.00,Wunderground v.1.13,2013-06-17 15:20:00,
2013-06-17 09:30:00,73.9,54.6,29.87,NNE,23,2.0,2.0,51,0.00,,,0.00,Wunderground v.1.13,2013-06-17 15:30:00,
2013-06-17 09:40:00,74.7,54.8,29.86,NNE,19,2.0,2.0,50,0.00,,,0.00,Wunderground v.1.13,2013-06-17 15:40:00,
2013-06-17 09:44:00,75.1,54.6,29.86,NNE,30,2.0,2.0,49,0.00,,,0.00,Wunderground v.1.13,2013-06-17 15:44:00,
2013-06-17 09:49:00,75.3,54.3,29.86,NNE,20,3.0,3.0,48,0.00,,,0.00,Wunderground v.1.13,2013-06-17 15:49:00,
2013-06-17 09:55:00,76.0,56.0,29.86,North,11,3.0,3.0,50,0.00,,,0.00,Wunderground v.1.13,2013-06-17 15:55:00,
2013-06-17 10:00:00,76.1,53.2,29.86,NE,47,4.0,4.0,45,0.00,,,0.00,Wunderground v.1.13,2013-06-17 16:00:00,
2013-06-17 10:05:00,76.3,54.0,29.86,NNE,28,5.0,5.0,46,0.00,,,0.00,Wunderground v.1.13,2013-06-17 16:05:00,
2013-06-17 10:14:00,76.7,53.1,29.86,NE,35,4.0,4.0,44,0.00,,,0.00,Wunderground v.1.13,2013-06-17 16:14:00,
2013-06-17 10:20:00,76.8,53.2,29.86,East,82,4.0,14.0,44,0.00,,,0.00,Wunderground v.1.13,2013-06-17 16:20:00,
2013-06-17 10:25:00,76.7,53.1,29.86,ENE,69,5.0,5.0,44,0.00,,,0.00,Wunderground v.1.13,2013-06-17 16:25:00,
2013-06-17 10:30:00,76.7,53.1,29.86,NNE,32,5.0,14.0,44,0.00,,,0.00,Wunderground v.1.13,2013-06-17 16:30:00,
2013-06-17 10:35:00,76.7,53.8,29.87,NNE,28,4.0,4.0,45,0.00,,,0.00,Wunderground v.1.13,2013-06-17 16:35:00,
2013-06-17 10:40:00,76.7,53.1,29.87,ENE,67,5.0,14.0,44,0.00,,,0.00,Wunderground v.1.13,2013-06-17 16:40:00,
2013-06-17 10:44:00,76.8,52.6,29.87,ENE,60,5.0,14.0,43,0.00,,,0.00,Wunderground v.1.13,2013-06-17 16:44:00,
2013-06-17 10:50:00,76.7,51.9,29.86,NE,49,6.0,6.0,42,0.00,,,0.00,Wunderground v.1.13,2013-06-17 16:50:00,
2013-06-17 10:55:00,77.0,51.5,29.86,NE,42,6.0,6.0,41,0.00,,,0.00,Wunderground v.1.13,2013-06-17 16:55:00,
2013-06-17 11:00:00,77.2,53.0,29.86,NE,51,6.0,6.0,43,0.00,,,0.00,Wunderground v.1.13,2013-06-17 17:00:00,
2013-06-17 11:09:00,77.0,54.0,29.86,NE,44,6.0,6.0,45,0.00,,,0.00,Wunderground v.1.13,2013-06-17 17:09:00,
2013-06-17 11:14:00,76.8,53.2,29.86,North,351,6.0,14.0,44,0.00,,,0.00,Wunderground v.1.13,2013-06-17 17:14:00,
2013-06-17 11:20:00,77.0,54.6,29.88,ENE,58,7.0,7.0,46,0.00,,,0.00,Wunderground v.1.13,2013-06-17 17:20:00,
2013-06-17 11:30:00,77.2,53.6,29.88,NNE,20,6.0,6.0,44,0.00,,,0.00,Wunderground v.1.13,2013-06-17 17:30:00,
2013-06-17 11:34:00,77.4,53.8,29.88,NE,55,5.0,5.0,44,0.00,,,0.00,Wunderground v.1.13,2013-06-17 17:34:00,
2013-06-17 11:44:00,77.6,52.0,29.88,ENE,68,6.0,6.0,41,0.00,,,0.00,Wunderground v.1.13,2013-06-17 17:44:00,
2013-06-17 11:50:00,77.6,52.0,29.88,NE,53,6.0,6.0,41,0.00,,,0.00,Wunderground v.1.13,2013-06-17 17:50:00,
2013-06-17 11:55:00,77.6,52.0,29.88,North,360,5.0,5.0,41,0.00,,,0.00,Wunderground v.1.13,2013-06-17 17:55:00,
2013-06-17 12:00:00,77.9,52.3,29.88,NNE,28,4.0,4.0,41,0.00,,,0.00,Wunderground v.1.13,2013-06-17 18:00:00,
2013-06-17 12:05:00,78.3,52.0,29.88,East,86,4.0,4.0,40,0.00,,,0.00,Wunderground v.1.13,2013-06-17 18:05:00,
2013-06-17 12:10:00,79.4,52.3,29.88,NE,55,2.0,14.0,39,0.00,,,0.00,Wunderground v.1.13,2013-06-17 18:10:00,
2013-06-17 12:14:00,79.8,51.9,29.88,ENE,65,1.0,1.0,38,0.00,,,0.00,Wunderground v.1.13,2013-06-17 18:14:00,
2013-06-17 12:19:00,80.1,52.2,29.87,East,88,2.0,14.0,38,0.00,,,0.00,Wunderground v.1.13,2013-06-17 18:19:00,
2013-06-17 12:24:00,79.9,52.7,29.87,ENE,63,1.0,1.0,39,0.00,,,0.00,Wunderground v.1.13,2013-06-17 18:24:00,
2013-06-17 12:30:00,80.1,52.2,29.87,ENE,59,2.0,2.0,38,0.00,,,0.00,Wunderground v.1.13,2013-06-17 18:30:00,
2013-06-17 12:34:00,80.5,52.6,29.87,East,95,2.0,2.0,38,0.00,,,0.00,Wunderground v.1.13,2013-06-17 18:34:00,
2013-06-17 12:40:00,81.2,53.2,29.87,East,87,0.0,14.0,38,0.00,,,0.00,Wunderground v.1.13,2013-06-17 18:40:00,
2013-06-17 12:45:00,80.3,53.8,29.87,SSE,155,2.0,2.0,40,0.00,,,0.00,Wunderground v.1.13,2013-06-17 18:45:00,
2013-06-17 12:50:00,80.3,52.4,29.87,ESE,109,3.0,3.0,38,0.00,,,0.00,Wunderground v.1.13,2013-06-17 18:50:00,
2013-06-17 12:55:00,80.7,52.7,29.87,SE,134,2.0,2.0,38,0.00,,,0.00,Wunderground v.1.13,2013-06-17 18:55:00,
2013-06-17 12:59:00,80.3,52.4,29.87,ESE,118,2.0,14.0,38,0.00,,,0.00,Wunderground v.1.13,2013-06-17 18:59:00,
2013-06-17 13:04:00,80.7,53.4,29.86,ENE,67,2.0,2.0,39,0.00,,,0.00,Wunderground v.1.13,2013-06-17 19:04:00,
2013-06-17 13:09:00,80.9,54.3,29.86,East,88,2.0,2.0,40,0.00,,,0.00,Wunderground v.1.13,2013-06-17 19:09:00,
2013-06-17 13:15:00,81.6,52.8,29.86,SE,135,0.0,14.0,37,0.00,,,0.00,Wunderground v.1.13,2013-06-17 19:15:00,
2013-06-17 13:20:00,82.0,51.6,29.87,SE,124,0.0,14.0,35,0.00,,,0.00,Wunderground v.1.13,2013-06-17 19:20:00,
2013-06-17 13:30:00,81.1,52.4,29.87,ENE,76,2.0,14.0,37,0.00,,,0.00,Wunderground v.1.13,2013-06-17 19:30:00,
2013-06-17 13:35:00,80.1,53.6,29.88,NE,54,4.0,14.0,40,0.00,,,0.00,Wunderground v.1.13,2013-06-17 19:35:00,
2013-06-17 13:40:00,79.4,53.0,29.88,SE,132,5.0,5.0,40,0.00,,,0.00,Wunderground v.1.13,2013-06-17 19:40:00,
2013-06-17 13:44:00,79.2,52.8,29.88,ENE,74,4.0,4.0,40,0.00,,,0.00,Wunderground v.1.13,2013-06-17 19:44:00,
2013-06-17 13:49:00,78.6,52.3,29.86,NE,42,5.0,5.0,40,0.00,,,0.00,Wunderground v.1.13,2013-06-17 19:49:00,
2013-06-17 13:54:00,78.1,52.5,29.86,NE,48,6.0,6.0,41,0.00,,,0.00,Wunderground v.1.13,2013-06-17 19:54:00,
2013-06-17 14:00:00,78.5,53.5,29.86,ENE,59,5.0,5.0,42,0.00,,,0.00,Wunderground v.1.13,2013-06-17 20:00:00,
2013-06-17 14:05:00,78.1,52.5,29.84,East,84,2.0,2.0,41,0.00,,,0.00,Wunderground v.1.13,2013-06-17 20:05:00,
2013-06-17 14:09:00,77.7,52.1,29.84,East,84,1.0,1.0,41,0.00,,,0.00,Wunderground v.1.13,2013-06-17 20:09:00,
2013-06-17 14:14:00,77.6,52.0,29.84,ENE,72,1.0,14.0,41,0.00,,,0.00,Wunderground v.1.13,2013-06-17 20:14:00,
2013-06-17 14:20:00,77.0,52.1,29.85,NE,46,0.0,14.0,42,0.00,,,0.00,Wunderground v.1.13,2013-06-17 20:20:00,
2013-06-17 14:25:00,77.0,56.4,29.85,East,83,0.0,14.0,49,0.00,,,0.00,Wunderground v.1.13,2013-06-17 20:25:00,
2013-06-17 14:30:00,76.1,55.0,29.85,ESE,119,0.0,14.0,48,0.00,,,0.00,Wunderground v.1.13,2013-06-17 20:30:00,
2013-06-17 14:35:00,75.8,55.8,29.83,ENE,72,0.0,14.0,50,0.00,,,0.00,Wunderground v.1.13,2013-06-17 20:35:00,
2013-06-17 14:40:00,75.4,55.5,29.83,East,80,0.0,14.0,50,0.00,,,0.00,Wunderground v.1.13,2013-06-17 20:40:00,
2013-06-17 14:44:00,75.1,56.3,29.83,East,97,0.0,14.0,52,0.00,,,0.00,Wunderground v.1.13,2013-06-17 20:44:00,
2013-06-17 14:50:00,75.1,56.3,29.81,ESE,102,0.0,14.0,52,0.00,,,0.00,Wunderground v.1.13,2013-06-17 20:50:00,
2013-06-17 14:55:00,75.3,55.4,29.81,ENE,63,0.0,14.0,50,0.00,,,0.00,Wunderground v.1.13,2013-06-17 20:55:00,
2013-06-17 15:00:00,75.6,55.6,29.81,ENE,63,0.0,14.0,50,0.00,,,0.00,Wunderground v.1.13,2013-06-17 21:00:00,
2013-06-17 15:05:00,77.0,55.8,29.82,ESE,121,0.0,14.0,48,0.00,,,0.00,Wunderground v.1.13,2013-06-17 21:05:00,
2013-06-17 15:10:00,78.5,56.0,29.82,SE,140,0.0,14.0,46,0.00,,,0.00,Wunderground v.1.13,2013-06-17 21:10:00,
2013-06-17 15:15:00,79.2,55.4,29.82,ENE,78,0.0,14.0,44,0.00,,,0.00,Wunderground v.1.13,2013-06-17 21:15:00,
2013-06-17 15:19:00,79.9,55.4,29.83,SSE,153,0.0,14.0,43,0.00,,,0.00,Wunderground v.1.13,2013-06-17 21:19:00,
2013-06-17 15:30:00,79.8,53.3,29.83,ENE,69,1.0,1.0,40,0.00,,,0.00,Wunderground v.1.13,2013-06-17 21:30:00,
2013-06-17 15:35:00,79.9,53.4,29.84,ESE,112,0.0,14.0,40,0.00,,,0.00,Wunderground v.1.13,2013-06-17 21:35:00,
2013-06-17 15:40:00,79.9,54.8,29.84,ENE,69,0.0,14.0,42,0.00,,,0.00,Wunderground v.1.13,2013-06-17 21:40:00,
2013-06-17 15:45:00,80.5,53.3,29.84,ENE,63,2.0,14.0,39,0.00,,,0.00,Wunderground v.1.13,2013-06-17 21:45:00,
2013-06-17 15:50:00,80.5,54.6,29.83,NE,51,3.0,14.0,41,0.00,,,0.00,Wunderground v.1.13,2013-06-17 21:50:00,
2013-06-17 15:54:00,80.1,53.6,29.83,NE,43,3.0,3.0,40,0.00,,,0.00,Wunderground v.1.13,2013-06-17 21:54:00,
2013-06-17 16:00:00,80.9,52.9,29.83,ENE,64,2.0,2.0,38,0.00,,,0.00,Wunderground v.1.13,2013-06-17 22:00:00,
2013-06-17 16:10:00,81.1,53.1,29.83,NE,47,2.0,14.0,38,0.00,,,0.00,Wunderground v.1.13,2013-06-17 22:10:00,
2013-06-17 16:15:00,80.5,51.1,29.83,ENE,61,2.0,14.0,36,0.00,,,0.00,Wunderground v.1.13,2013-06-17 22:15:00,
2013-06-17 16:20:00,80.7,52.0,29.82,ENE,62,2.0,2.0,37,0.00,,,0.00,Wunderground v.1.13,2013-06-17 22:20:00,
2013-06-17 16:24:00,80.9,52.2,29.82,ENE,63,2.0,2.0,37,0.00,,,0.00,Wunderground v.1.13,2013-06-17 22:24:00,
2013-06-17 16:29:00,81.1,53.1,29.82,South,169,2.0,2.0,38,0.00,,,0.00,Wunderground v.1.13,2013-06-17 22:29:00,
2013-06-17 16:35:00,81.4,52.6,29.82,NE,40,1.0,1.0,37,0.00,,,0.00,Wunderground v.1.13,2013-06-17 22:35:00,
2013-06-17 16:40:00,81.2,53.2,29.82,NE,55,2.0,14.0,38,0.00,,,0.00,Wunderground v.1.13,2013-06-17 22:40:00,
2013-06-17 16:44:00,80.9,51.4,29.82,ESE,123,2.0,2.0,36,0.00,,,0.00,Wunderground v.1.13,2013-06-17 22:44:00,
2013-06-17 16:54:00,80.5,53.3,29.82,ENE,65,1.0,1.0,39,0.00,,,0.00,Wunderground v.1.13,2013-06-17 22:54:00,
2013-06-17 17:00:00,80.5,52.6,29.82,ESE,114,1.0,1.0,38,0.00,,,0.00,Wunderground v.1.13,2013-06-17 23:00:00,
2013-06-17 17:05:00,80.9,54.3,29.81,ESE,107,0.0,14.0,40,0.00,,,0.00,Wunderground v.1.13,2013-06-17 23:05:00,
2013-06-17 17:10:00,80.3,53.8,29.81,ESE,111,0.0,14.0,40,0.00,,,0.00,Wunderground v.1.13,2013-06-17 23:10:00,
2013-06-17 17:14:00,80.1,53.6,29.81,East,80,0.0,14.0,40,0.00,,,0.00,Wunderground v.1.13,2013-06-17 23:14:00,
2013-06-17 17:24:00,79.9,54.1,29.81,SE,129,0.0,14.0,41,0.00,,,0.00,Wunderground v.1.13,2013-06-17 23:24:00,
2013-06-17 17:30:00,79.9,54.1,29.81,ESE,123,0.0,14.0,41,0.00,,,0.00,Wunderground v.1.13,2013-06-17 23:30:00,
2013-06-17 17:35:00,79.8,52.6,29.80,SSE,157,0.0,14.0,39,0.00,,,0.00,Wunderground v.1.13,2013-06-17 23:35:00,
2013-06-17 17:45:00,79.6,52.5,29.80,East,85,0.0,14.0,39,0.00,,,0.00,Wunderground v.1.13,2013-06-17 23:45:00,
2013-06-17 17:50:00,79.6,53.8,29.80,East,94,0.0,14.0,41,0.00,,,0.00,Wunderground v.1.13,2013-06-17 23:50:00,
2013-06-17 18:00:00,79.0,53.9,29.80,ENE,68,0.0,14.0,42,0.00,,,0.00,Wunderground v.1.13,2013-06-18 00:00:00,
2013-06-17 18:05:00,78.8,53.8,29.79,ENE,74,0.0,14.0,42,0.00,,,0.00,Wunderground v.1.13,2013-06-18 00:05:00,
2013-06-17 18:10:00,78.8,53.8,29.79,ENE,74,0.0,14.0,42,0.00,,,0.00,Wunderground v.1.13,2013-06-18 00:10:00,
2013-06-17 18:14:00,78.8,54.4,29.79,East,82,0.0,14.0,43,0.00,,,0.00,Wunderground v.1.13,2013-06-18 00:14:00,
2013-06-17 18:19:00,78.3,54.6,29.80,East,81,0.0,14.0,44,0.00,,,0.00,Wunderground v.1.13,2013-06-18 00:19:00,
2013-06-17 18:24:00,78.1,54.4,29.80,East,81,0.0,14.0,44,0.00,,,0.00,Wunderground v.1.13,2013-06-18 00:24:00,
2013-06-17 18:30:00,77.9,53.6,29.80,East,80,0.0,14.0,43,0.00,,,0.00,Wunderground v.1.13,2013-06-18 00:30:00,
2013-06-17 18:35:00,77.7,53.4,29.80,ENE,65,0.0,14.0,43,0.00,,,0.00,Wunderground v.1.13,2013-06-18 00:35:00,
2013-06-17 18:40:00,77.4,53.8,29.80,ENE,71,0.0,14.0,44,0.00,,,0.00,Wunderground v.1.13,2013-06-18 00:40:00,
2013-06-17 18:45:00,76.8,54.5,29.80,NE,52,1.0,1.0,46,0.00,,,0.00,Wunderground v.1.13,2013-06-18 00:45:00,
2013-06-17 18:50:00,76.5,54.8,29.80,ENE,62,1.0,1.0,47,0.00,,,0.00,Wunderground v.1.13,2013-06-18 00:50:00,
2013-06-17 18:59:00,76.0,54.9,29.80,ENE,69,0.0,14.0,48,0.00,,,0.00,Wunderground v.1.13,2013-06-18 00:59:00,
2013-06-17 19:05:00,76.0,54.9,29.81,ENE,69,0.0,14.0,48,0.00,,,0.00,Wunderground v.1.13,2013-06-18 01:05:00,
2013-06-17 19:10:00,75.6,55.1,29.81,ENE,67,0.0,14.0,49,0.00,,,0.00,Wunderground v.1.13,2013-06-18 01:10:00,
2013-06-17 19:15:00,75.4,55.5,29.81,NE,49,0.0,14.0,50,0.00,,,0.00,Wunderground v.1.13,2013-06-18 01:15:00,
2013-06-17 19:20:00,75.3,55.4,29.80,East,81,0.0,14.0,50,0.00,,,0.00,Wunderground v.1.13,2013-06-18 01:20:00,
2013-06-17 19:25:00,75.1,55.7,29.80,East,80,0.0,14.0,51,0.00,,,0.00,Wunderground v.1.13,2013-06-18 01:25:00,
2013-06-17 19:30:00,74.9,55.6,29.80,East,82,0.0,14.0,51,0.00,,,0.00,Wunderground v.1.13,2013-06-18 01:30:00,
2013-06-17 19:34:00,74.7,56.4,29.80,East,82,0.0,14.0,53,0.00,,,0.00,Wunderground v.1.13,2013-06-18 01:34:00,
2013-06-17 19:39:00,74.4,56.7,29.80,East,82,0.0,14.0,54,0.00,,,0.00,Wunderground v.1.13,2013-06-18 01:39:00,
2013-06-17 19:45:00,73.9,56.2,29.80,East,82,0.0,14.0,54,0.00,,,0.00,Wunderground v.1.13,2013-06-18 01:45:00,
2013-06-17 19:50:00,73.7,56.0,29.81,East,82,0.0,14.0,54,0.00,,,0.00,Wunderground v.1.13,2013-06-18 01:50:00,
2013-06-17 19:55:00,73.5,56.3,29.81,East,82,0.0,14.0,55,0.00,,,0.00,Wunderground v.1.13,2013-06-18 01:55:00,
2013-06-17 20:00:00,73.2,56.1,29.81,East,82,0.0,14.0,55,0.00,,,0.00,Wunderground v.1.13,2013-06-18 02:00:00,
2013-06-17 20:05:00,73.0,55.9,29.81,East,82,0.0,14.0,55,0.00,,,0.00,Wunderground v.1.13,2013-06-18 02:05:00,
2013-06-17 20:15:00,72.7,56.1,29.81,East,82,0.0,14.0,56,0.00,,,0.00,Wunderground v.1.13,2013-06-18 02:15:00,
2013-06-17 20:20:00,72.5,56.4,29.81,East,82,0.0,14.0,57,0.00,,,0.00,Wunderground v.1.13,2013-06-18 02:20:00,
2013-06-17 20:24:00,72.1,56.0,29.81,East,82,0.0,14.0,57,0.00,,,0.00,Wunderground v.1.13,2013-06-18 02:24:00,
2013-06-17 20:29:00,71.8,56.2,29.81,East,82,0.0,14.0,58,0.00,,,0.00,Wunderground v.1.13,2013-06-18 02:29:00,
2013-06-17 20:34:00,71.5,56.4,29.80,East,82,0.0,14.0,59,0.00,,,0.00,Wunderground v.1.13,2013-06-18 02:34:00,
2013-06-17 20:40:00,71.1,56.0,29.80,East,82,0.0,14.0,59,0.00,,,0.00,Wunderground v.1.13,2013-06-18 02:40:00,
2013-06-17 20:45:00,70.9,56.3,29.80,East,82,0.0,14.0,60,0.00,,,0.00,Wunderground v.1.13,2013-06-18 02:45:00,
2013-06-17 20:49:00,70.8,56.2,29.81,East,82,0.0,14.0,60,0.00,,,0.00,Wunderground v.1.13,2013-06-18 02:49:00,
2013-06-17 20:55:00,70.6,56.5,29.81,East,82,0.0,14.0,61,0.00,,,0.00,Wunderground v.1.13,2013-06-18 02:55:00,
2013-06-17 21:00:00,70.4,56.3,29.81,East,82,0.0,14.0,61,0.00,,,0.00,Wunderground v.1.13,2013-06-18 03:00:00,
2013-06-17 21:05:00,70.3,56.7,29.81,East,82,0.0,14.0,62,0.00,,,0.00,Wunderground v.1.13,2013-06-18 03:05:00,
2013-06-17 21:09:00,69.9,56.3,29.81,East,82,0.0,14.0,62,0.00,,,0.00,Wunderground v.1.13,2013-06-18 03:09:00,
2013-06-17 21:14:00,69.9,55.8,29.81,East,82,0.0,14.0,61,0.00,,,0.00,Wunderground v.1.13,2013-06-18 03:14:00,
2013-06-17 21:19:00,70.1,55.6,29.81,East,82,0.0,14.0,60,0.00,,,0.00,Wunderground v.1.13,2013-06-18 03:19:00,
2013-06-17 21:24:00,70.3,55.8,29.81,East,81,0.0,14.0,60,0.00,,,0.00,Wunderground v.1.13,2013-06-18 03:24:00,
2013-06-17 21:30:00,70.3,55.8,29.81,East,82,0.0,14.0,60,0.00,,,0.00,Wunderground v.1.13,2013-06-18 03:30:00,
2013-06-17 21:35:00,71.1,55.1,29.82,SE,140,0.0,14.0,57,0.00,,,0.00,Wunderground v.1.13,2013-06-18 03:35:00,
2013-06-17 21:40:00,71.8,54.8,29.82,SSE,149,0.0,14.0,55,0.00,,,0.00,Wunderground v.1.13,2013-06-18 03:40:00,
2013-06-17 21:49:00,72.3,54.7,29.83,SE,145,0.0,14.0,54,0.00,,,0.00,Wunderground v.1.13,2013-06-18 03:49:00,
2013-06-17 21:54:00,72.7,55.1,29.83,SSE,151,0.0,14.0,54,0.00,,,0.00,Wunderground v.1.13,2013-06-18 03:54:00,
2013-06-17 21:59:00,72.7,55.1,29.83,SSE,153,0.0,14.0,54,0.00,,,0.00,Wunderground v.1.13,2013-06-18 03:59:00,
2013-06-17 22:04:00,72.5,54.9,29.83,SE,146,0.0,14.0,54,0.00,,,0.00,Wunderground v.1.13,2013-06-18 04:04:00,
2013-06-17 22:10:00,72.1,55.0,29.83,SE,146,0.0,14.0,55,0.00,,,0.00,Wunderground v.1.13,2013-06-18 04:10:00,
2013-06-17 22:15:00,71.5,55.0,29.83,SE,146,0.0,14.0,56,0.00,,,0.00,Wunderground v.1.13,2013-06-18 04:15:00,
2013-06-17 22:20:00,70.8,55.3,29.83,SE,146,0.0,14.0,58,0.00,,,0.00,Wunderground v.1.13,2013-06-18 04:20:00,
2013-06-17 22:25:00,70.1,55.1,29.83,SE,146,0.0,14.0,59,0.00,,,0.00,Wunderground v.1.13,2013-06-18 04:25:00,
2013-06-17 22:29:00,69.6,55.1,29.83,SE,140,0.0,14.0,60,0.00,,,0.00,Wunderground v.1.13,2013-06-18 04:29:00,
2013-06-17 22:34:00,69.1,54.6,29.84,ESE,119,0.0,14.0,60,0.00,,,0.00,Wunderground v.1.13,2013-06-18 04:34:00,
2013-06-17 22:39:00,68.9,54.9,29.84,East,98,0.0,14.0,61,0.00,,,0.00,Wunderground v.1.13,2013-06-18 04:39:00,
2013-06-17 22:45:00,68.8,54.8,29.84,East,96,0.0,14.0,61,0.00,,,0.00,Wunderground v.1.13,2013-06-18 04:45:00,
2013-06-17 22:49:00,68.4,54.9,29.83,East,96,0.0,14.0,62,0.00,,,0.00,Wunderground v.1.13,2013-06-18 04:49:00,
2013-06-17 22:54:00,68.1,55.0,29.83,East,96,0.0,14.0,63,0.00,,,0.00,Wunderground v.1.13,2013-06-18 04:54:00,
2013-06-17 22:59:00,67.8,55.2,29.83,East,96,0.0,14.0,64,0.00,,,0.00,Wunderground v.1.13,2013-06-18 04:59:00,
2013-06-17 23:05:00,67.6,55.0,29.83,East,96,0.0,14.0,64,0.00,,,0.00,Wunderground v.1.13,2013-06-18 05:05:00,
2013-06-17 23:14:00,66.9,55.2,29.83,NE,48,0.0,14.0,66,0.00,,,0.00,Wunderground v.1.13,2013-06-18 05:14:00,
2013-06-17 23:19:00,66.6,55.3,29.84,NE,48,0.0,14.0,67,0.00,,,0.00,Wunderground v.1.13,2013-06-18 05:19:00,
2013-06-17 23:25:00,66.6,55.3,29.84,NE,48,0.0,14.0,67,0.00,,,0.00,Wunderground v.1.13,2013-06-18 05:25:00,
2013-06-17 23:30:00,66.6,55.3,29.84,NNE,27,0.0,14.0,67,0.00,,,0.00,Wunderground v.1.13,2013-06-18 05:30:00,
2013-06-17 23:35:00,66.8,55.5,29.84,NNE,27,0.0,14.0,67,0.00,,,0.00,Wunderground v.1.13,2013-06-18 05:35:00,
2013-06-17 23:40:00,66.9,55.6,29.84,NNE,27,0.0,14.0,67,0.00,,,0.00,Wunderground v.1.13,2013-06-18 05:40:00,
2013-06-17 23:45:00,66.8,55.9,29.84,NNE,27,0.0,14.0,68,0.00,,,0.00,Wunderground v.1.13,2013-06-18 05:45:00,
2013-06-17 23:55:00,66.1,56.0,29.85,NNE,27,0.0,14.0,70,0.00,,,0.00,Wunderground v.1.13,2013-06-18 05:55:00,
2013-06-17 23:59:00,65.8,56.1,29.85,NNE,27,0.0,14.0,71,0.00,,,0.00,Wunderground v.1.13,2013-06-18 05:59:00,